SCP
-0 -0 -0 -0 -0 -0 -0 -0 -0 0 -0 -0 0 0 0 0 0 0 0 0 0 0 0 0 -0 -0 -0 -0 -0 -0 0 0 0 0 0 0 0 0 0 0 0 0 0 0
0 -0 -0 -0 -0 -0 -0 -0 -0 0 -0 -0 -0 -0 0 0 0 0 0 0 0 0 0 -0 -0 -0 -0 -0 -0 -0 -0 -0 -0 -0 -0 -0 -0 -0 -0 0 0 0 0 0
0 0 -0 -0 -0 -0 -0 -0 0 0 -0 -0 0 -0 -0 -0 0 0 0 0 -0 -0 -0 -0 -0 -0 -0 -0 -0 -0 -0 -0 -0 -0 -0 -0 -0 -0 0 0 0 0 0 -0
0 -0 -0 0 0 -0 -0 -0 -0 -0 -0 -0 -0 -0 -0 -0 -0 0 0 0 -0 -0 -0 -0 -0 -0 -0 -0 -0 -0 -0 -0 -0 -0 -0 -0 -0 -0 -0 -0 -0 -0 -0 -0
-0 0 0 -0 -0 -0 -0 -0 -0 -0 0 0 0 0 -0 0 -0 -0 0 0 0 -0 -0 -0 -0 -0 -0 -0 -0 -0 -0 -0 -0 -0 -0 -0 -0 -0 -0 -0 -0 -0 -0 -0
0 0 0 -0 -0 -0 -0 -0 0 0 0 0 -0 0 -0 0 0 0 0 0 0 0 -0 -0 -0 -0 -0 -0 -0 -0 -0 -0 -0 -0 -0 -0 -0 -0 -0 -0 -0 -0 -0 -0
0 0 0 0 0 0 0 0 0 0 0 -0 0 0 -0 0 0 0 0 0 0 0 -0 -0 -0 -0 -0 -0 -0 -0 -0 -0 -0 -0 -0 -0 -0 -0 -0 -0 -0 -0 -0 -0
0 0 0 0 0 0 0 0 0 0 0 0 0 0 0 0 0 0 0 0 0 0 0 -0 -0 -0 -0 -0 -0 -0 -0 -0 -0 -0 -0 -0 -0 -0 -0 -0 -0 -0 -0 -0
0 0 0 0 0 0 0 0 0 0 0 0 0 0 0 0 0 0 0 0 0 0 0 -0 0 0 0 0 -0 0 0 -0 -0 -0 -0 -0 -0 -0 -0 -0 -0 -0 -0 -0
0 0 0 0 0 0 0 0 0 0 0 0 0 0 0 0 -0 0 0 0 0 0 0 0 0 0 0 0 0 0 0 0 0 0 0 -0 -0 -0 -0 -0 -0 -0 -0 -0
0 0 0 0 0 0 0 0 0 0 0 0 0 0 0 0 0 0 0 0 0 0 0 0 0 0 0 0 0 0 0 0 0 0 0 0 0 0 -0 -0 -0 -0 -0 -0
0 0 0 0 0 0 0 0 0 0 0 0 0 0 0 0 0 0 0 0 0 0 0 0 0 0 0 0 0 0 0 0 0 0 0 0 0 0 0 0 -0 -0 -0 -0
0 0 0 0 0 0 0 0 0 0 0 0 0 0 0 0 0 0 0 0 0 0 0 0 0 0 0 0 0 0 0 0 0 0 0 0 0 0 0 0 0 0 0 0
0 0 0 0 0 0 0 0 0 0 0 0 0 0 0 0 0 0 0 0 0 0 0 0 0 0 0 0 0 0 0 0 0 0 0 0 0 0 0 0 0 0 0 0
0 0 0 0 0 0 0 0 0 0 0 0 0 0 0 0 0 0 0 0 0 0 0 0 0 0 0 0 0 0 0 0 0 0 0 0 0 0 0 0 0 0 0 0
0 0 0 0 0 0 0 0 0 0 0 0 0 0 0 0 0 0 0 0 0 0 0 0 0 0 0 0 0 0 0 0 0 0 0 0 0 0 0 0 0 0 0 0
0 0 0 0 0 0 0 0 0 0 0 0 0 0 0 0 0 0 0 0 0 0 0 0 0 0 0 0 0 0 0 0 0 0 0 0 0 0 0 0 0 0 0 0
0 0 0 0 0 0 0 0 0 0 0 0 0 0 0 0 0 0 0 0 0 0 0 0 0 0 0 0 0 0 0 0 0 0 0 0 0 0 0 0 0 0 0 0
0 0 0 0 0 0 0 0 0 0 0 0 0 0 0 0 0 0 0 0 0 0 0 0 0 0 0 0 0 0 0 0 0 0 0 0 0 0 0 0 0 0 0 0
0 0 0 0 0 0 0 0 0 0 0 0 0 0 0 0 0 0 0 0 0 0 0 0 0 0 0 0 0 0 0 0 0 0 0 0 0 0 0 0 0 0 0 0
0 0 0 0 0 0 0 0 0 0 0 0 0 0 0 0 0 0 0 0 0 0 0 0 0 0 0 0 0 0 0 0 0 0 0 0 0 0 0 0 0 0 0 0
0 0 0 0 0 0 0 0 0 0 0 0 0 0 0 0 0 0 0 0 0 0 0 0 0 0 0 0 0 0 0 0 0 0 0 0 0 0 0 0 0 0 0 0
0 0 0 0 0 0 0 0 0 0 0 0 0 0 0 0 0 0 0 0 0 0 0 0 0 0 0 0 0 0 0 0 0 0 0 0 0 0 0 0 0 0 0 0
0 0 0 0 0 0 0 0 0 0 0 0 0 0 0 0 0 0 0 0 0 0 0 0 0 0 0 0 0 0 0 0 0 0 0 0 0 0 0 0 0 0 0 0
0 0 0 0 0 0 0 0 0 0 0 0 0 0 0 0 0 0 0 0 0 0 0 0 0 0 0 0 0 0 0 0 0 0 0 0 0 0 0 0 0 0 0 0
0 0 0 0 0 0 0 0 0 0 0 0 0 0 0 0 0 0 0 0 0 0 0 0 0 0 0 0 0 0 0 0 0 0 0 0 0 0 0 0 0 0 0 0
Wind_Speed_500mb
38 28 13 13 9 6 14 19 16 5 5 16 15 18 10 17 23 27 31 36 40 43 42 47 52 57 62 65 68 70 68 68 67 70 73 72 72 67 64 63 62 60 58 56
15 21 12 9 10 16 14 20 9 4 9 12 8 8 4 8 12 18 21 27 33 38 44 46 49 53 57 60 63 67 66 65 67 68 70 71 69 67 67 66 66 66 66 63
18 4 12 7 14 13 12 9 5 9 9 12 9 3 6 2 8 10 15 18 23 32 41 47 49 50 50 52 57 62 62 63 66 68 69 69 69 70 71 71 69 68 67 66
17 14 8 11 12 8 6 5 2 13 5 7 5 5 7 9 8 5 5 10 15 28 37 44 50 48 44 41 44 52 56 58 61 67 71 76 76 77 74 73 69 66 65 65
3 12 13 15 8 7 5 2 5 5 8 7 9 3 5 6 9 10 11 4 7 24 34 43 46 43 42 32 34 42 47 49 55 62 70 74 73 70 69 69 70 69 67 65
8 5 8 5 5 8 6 6 10 7 5 6 7 6 5 9 11 8 23 17 8 10 33 41 36 38 36 27 24 32 38 41 49 58 66 74 74 72 71 71 72 72 70 69
6 7 8 13 5 7 8 9 6 9 8 6 4 4 13 9 12 17 34 24 12 11 28 40 38 38 35 26 19 28 35 40 49 60 69 75 71 71 71 73 76 77 77 74
7 8 12 22 6 1 8 8 8 7 1 8 8 8 6 4 12 19 23 17 17 16 31 41 41 38 36 30 23 30 36 42 49 59 69 72 70 72 73 74 76 78 78 78
9 3 5 7 10 1 6 8 6 15 2 6 4 11 7 5 11 21 24 21 19 14 37 37 38 35 34 31 29 33 38 41 47 57 68 70 68 70 72 72 74 79 79 80
7 7 2 6 1 21 5 12 6 7 4 7 8 10 8 10 17 22 29 30 25 18 37 33 34 35 36 35 32 34 39 42 47 57 65 71 73 68 70 75 79 81 78 78
8 5 5 4 7 3 4 4 12 9 5 9 2 11 12 14 16 16 38 35 32 30 43 33 33 34 38 37 33 34 39 43 49 58 66 72 74 69 72 77 83 80 79 79
2 9 4 2 4 4 3 8 6 8 8 2 5 13 9 21 17 19 26 28 30 33 43 33 32 33 35 40 41 41 43 46 52 59 68 74 77 73 72 81 85 78 80 81
14 2 5 13 7 6 5 7 8 8 6 11 10 11 7 16 13 21 26 25 34 45 36 34 32 31 32 39 43 43 46 50 55 62 70 76 79 75 79 87 81 80 83 85
8 5 12 12 10 7 6 7 7 11 7 8 14 14 16 14 16 30 35 46 47 39 38 40 41 41 41 41 45 53 52 54 57 63 71 76 77 76 84 82 81 85 83 86
8 8 4 5 7 3 8 9 18 18 12 14 5 16 27 10 20 41 50 50 41 35 37 40 45 51 55 52 51 56 57 56 61 69 74 76 72 76 82 80 84 83 87 91
4 4 4 7 6 5 14 22 28 28 21 29 24 38 65 73 53 45 41 35 35 38 42 43 45 55 55 56 58 57 61 61 62 67 73 72 71 80 78 82 81 84 88 91
9 11 5 10 8 11 15 19 34 16 13 24 18 29 11 18 31 38 39 39 46 54 49 48 50 55 62 61 54 61 67 66 63 65 69 68 71 78 81 75 78 83 88 90
11 10 5 6 7 1 9 4 13 22 14 30 13 25 32 48 45 53 54 54 52 46 44 52 54 61 63 62 63 60 68 64 62 65 65 66 73 79 73 71 76 83 87 87
4 9 4 5 6 15 13 12 15 17 17 36 41 51 58 63 37 53 37 34 45 52 52 61 56 59 59 61 54 61 63 59 61 64 64 66 73 74 68 71 76 82 88 88
9 10 7 6 9 14 10 7 15 17 10 22 49 49 48 19 5 17 38 38 50 52 57 58 52 55 63 56 59 61 59 59 61 63 64 68 71 65 66 71 76 83 87 89
7 2 11 7 8 19 20 18 26 9 12 25 39 28 35 20 37 46 47 54 53 55 56 56 54 60 63 51 58 59 58 56 61 62 65 66 63 61 65 73 78 85 90 92
18 19 10 7 4 22 36 21 16 16 22 31 30 32 36 44 50 55 59 59 58 62 61 61 57 59 55 56 56 54 54 58 60 63 65 61 60 61 67 77 83 88 90 90
8 15 12 26 19 4 75 22 52 20 19 30 40 48 51 54 62 65 63 63 65 62 57 52 50 52 51 53 52 51 54 57 60 63 62 59 61 65 70 78 86 93 88 79
10 16 8 3 21 55 45 58 61 50 55 61 66 69 68 72 69 66 67 67 64 59 57 52 54 54 52 51 48 51 55 58 58 56 56 58 65 71 76 82 83 86 78 74
9 35 12 15 28 32 49 61 72 66 61 57 56 60 61 64 69 70 70 62 61 62 61 57 58 55 53 47 47 53 54 54 55 54 56 60 66 74 81 83 78 73 67 63
26 14 13 20 42 42 37 47 48 47 52 61 66 72 72 70 69 62 64 65 65 65 63 62 60 54 46 45 48 49 48 49 52 56 61 66 72 77 79 81 77 53 63 59
Wind_Direction_500mb
32 60 31 319 335 79 97 89 93 49 306 60 73 100 95 94 87 81 76 70 63 54 48 41 37 31 27 24 22 22 20 20 19 19 17 20 22 23 23 20 16 11 6 3
53 53 331 303 25 74 70 90 71 106 38 86 122 93 106 90 74 80 76 64 59 53 43 36 28 24 20 18 20 20 20 18 20 18 17 15 16 16 17 17 17 13 11 8
82 297 349 66 40 57 33 85 127 123 103 66 131 151 190 176 128 92 79 69 59 44 32 26 19 13 9 13 17 17 17 16 15 14 11 9 7 8 6 8 8 9 7 6
75 2 33 51 70 355 72 353 132 116 86 143 16 261 250 194 199 183 114 79 58 38 28 17 9 4 1 6 11 14 13 15 17 15 13 10 6 2 359 356 356 358 0 0
58 7 23 47 7 333 90 133 95 90 87 90 345 65 261 140 231 223 210 149 64 33 16 7 2 0 1 357 4 8 11 11 10 8 6 4 2 359 354 349 348 349 350 352
99 46 48 331 313 10 124 94 49 55 77 36 256 121 248 192 204 185 206 204 197 20 9 358 356 353 352 354 355 357 3 5 4 4 2 360 357 354 350 348 346 344 344 344
26 24 353 25 6 46 60 59 358 6 15 208 344 51 245 229 216 197 192 204 216 284 341 346 344 348 350 348 340 345 350 356 358 358 357 356 355 354 351 347 345 342 340 339
101 356 12 348 59 146 48 130 140 195 285 270 333 242 250 247 195 184 198 208 234 284 327 338 342 343 342 342 331 336 341 346 351 352 352 352 351 350 348 346 343 339 336 334
109 82 342 57 37 36 266 52 155 104 70 38 270 283 277 168 208 207 214 229 248 286 332 339 344 346 343 337 329 328 333 338 342 345 346 348 347 344 342 340 339 336 333 330
224 80 32 289 191 35 90 141 64 12 60 313 292 282 242 214 226 227 234 239 249 276 330 334 339 341 339 332 323 323 327 328 333 337 340 342 343 340 337 336 336 334 330 327
136 80 265 9 24 163 19 29 50 107 104 160 269 272 209 209 211 217 234 242 255 258 325 320 326 333 339 335 325 320 323 322 325 330 334 336 339 336 334 333 332 330 328 327
164 138 126 155 171 256 185 188 137 113 258 80 127 272 217 214 218 228 234 236 264 271 309 306 315 325 338 341 331 323 321 320 323 324 329 332 334 332 328 328 328 327 325 324
184 6 28 345 5 358 207 182 115 101 78 205 144 264 241 251 238 225 241 253 289 297 297 296 300 308 320 334 335 323 319 320 322 319 321 325 329 327 325 326 326 324 322 321
138 105 161 192 202 130 178 196 169 129 128 185 230 285 255 236 230 247 252 278 293 298 305 301 293 293 303 316 326 329 319 314 314 313 316 320 323 323 323 322 321 320 320 320
132 179 126 265 260 301 230 184 188 203 181 179 246 223 258 234 227 268 279 287 288 293 305 317 319 310 295 297 310 319 318 311 306 309 314 317 316 318 320 319 318 318 319 318
90 215 96 316 350 306 278 223 220 219 229 255 255 276 270 274 277 280 281 276 282 290 299 303 311 312 310 302 297 306 313 307 302 305 313 313 313 317 319 318 318 319 320 319
120 133 95 268 343 330 295 231 198 187 211 206 199 233 250 270 266 280 288 282 285 291 293 304 304 308 308 307 299 292 305 302 300 306 313 309 311 315 317 317 319 322 322 321
127 100 77 231 1 75 247 178 188 203 232 208 258 256 250 261 274 286 288 285 292 299 299 307 302 304 304 299 299 299 301 298 298 307 309 306 310 314 314 317 321 323 323 322
126 122 79 156 210 302 270 193 169 179 267 205 219 246 255 270 280 281 282 293 307 305 299 304 301 302 300 297 303 300 300 297 301 306 304 306 311 312 312 318 322 325 324 322
78 67 122 90 171 228 241 172 173 150 286 236 198 229 244 227 227 254 300 299 299 297 297 300 295 301 305 295 299 300 300 297 303 304 303 308 310 309 313 318 322 323 324 321
141 186 202 195 245 281 242 162 151 93 241 179 192 228 235 196 258 298 298 299 306 303 302 303 297 304 304 292 300 299 297 299 302 302 305 308 307 309 314 316 320 322 323 320
164 159 193 125 149 275 165 137 181 214 182 203 220 256 256 276 289 295 300 302 303 303 301 301 301 301 298 297 298 295 295 299 302 305 307 307 306 311 315 317 320 321 322 319
216 187 181 192 206 242 183 205 217 234 248 265 269 280 278 278 286 297 302 302 300 301 300 301 302 298 294 294 294 294 298 301 303 305 305 305 307 311 316 318 320 321 322 320
243 196 235 91 212 232 223 235 245 249 263 279 285 286 286 287 291 293 299 301 300 299 301 300 298 295 291 292 291 295 299 302 305 305 305 306 309 314 317 319 322 321 322 323
184 155 203 261 272 270 259 257 266 274 279 283 285 286 285 288 290 295 299 299 298 301 302 299 297 294 291 288 292 297 301 304 306 306 307 309 312 316 318 320 323 323 323 324
193 184 191 244 253 237 251 270 279 276 282 290 291 292 295 295 297 299 297 300 300 300 300 296 295 291 286 287 294 296 301 304 305 306 309 313 316 319 320 321 321 326 321 326
Wind_Speed_850mb
38 28 13 13 9 6 14 19 16 5 5 16 15 18 10 17 23 27 31 36 40 43 42 47 52 57 62 65 68 70 68 68 67 70 73 72 72 67 64 63 62 60 58 56
15 21 12 9 10 16 14 20 9 4 9 12 8 8 4 8 12 18 21 27 33 38 44 46 49 53 57 60 63 67 66 65 67 68 70 71 69 67 67 66 66 66 66 63
18 4 12 7 14 13 12 9 5 9 9 12 9 3 6 2 8 10 15 18 23 32 41 47 49 50 50 52 57 62 62 63 66 68 69 69 69 70 71 71 69 68 67 66
17 14 8 11 12 8 6 5 2 13 5 7 5 5 7 9 8 5 5 10 15 28 37 44 50 48 44 41 44 52 56 58 61 67 71 76 76 77 74 73 69 66 65 65
3 12 13 15 8 7 5 2 5 5 8 7 9 3 5 6 9 10 11 4 7 24 34 43 46 43 42 32 34 42 47 49 55 62 70 74 73 70 69 69 70 69 67 65
8 5 8 5 5 8 6 6 10 7 5 6 7 6 5 9 11 8 23 17 8 10 33 41 36 38 36 27 24 32 38 41 49 58 66 74 74 72 71 71 72 72 70 69
6 7 8 13 5 7 8 9 6 9 8 6 4 4 13 9 12 17 34 24 12 11 28 40 38 38 35 26 19 28 35 40 49 60 69 75 71 71 71 73 76 77 77 74
7 8 12 22 6 1 8 8 8 7 1 8 8 8 6 4 12 19 23 17 17 16 31 41 41 38 36 30 23 30 36 42 49 59 69 72 70 72 73 74 76 78 78 78
9 3 5 7 10 1 6 8 6 15 2 6 4 11 7 5 11 21 24 21 19 14 37 37 38 35 34 31 29 33 38 41 47 57 68 70 68 70 72 72 74 79 79 80
7 7 2 6 1 21 5 12 6 7 4 7 8 10 8 10 17 22 29 30 25 18 37 33 34 35 36 35 32 34 39 42 47 57 65 71 73 68 70 75 79 81 78 78
8 5 5 4 7 3 4 4 12 9 5 9 2 11 12 14 16 16 38 35 32 30 43 33 33 34 38 37 33 34 39 43 49 58 66 72 74 69 72 77 83 80 79 79
2 9 4 2 4 4 3 8 6 8 8 2 5 13 9 21 17 19 26 28 30 33 43 33 32 33 35 40 41 41 43 46 52 59 68 74 77 73 72 81 85 78 80 81
14 2 5 13 7 6 5 7 8 8 6 11 10 11 7 16 13 21 26 25 34 45 36 34 32 31 32 39 43 43 46 50 55 62 70 76 79 75 79 87 81 80 83 85
8 5 12 12 10 7 6 7 7 11 7 8 14 14 16 14 16 30 35 46 47 39 38 40 41 41 41 41 45 53 52 54 57 63 71 76 77 76 84 82 81 85 83 86
8 8 4 5 7 3 8 9 18 18 12 14 5 16 27 10 20 41 50 50 41 35 37 40 45 51 55 52 51 56 57 56 61 69 74 76 72 76 82 80 84 83 87 91
4 4 4 7 6 5 14 22 28 28 21 29 24 38 65 73 53 45 41 35 35 38 42 43 45 55 55 56 58 57 61 61 62 67 73 72 71 80 78 82 81 84 88 91
9 11 5 10 8 11 15 19 34 16 13 24 18 29 11 18 31 38 39 39 46 54 49 48 50 55 62 61 54 61 67 66 63 65 69 68 71 78 81 75 78 83 88 90
11 10 5 6 7 1 9 4 13 22 14 30 13 25 32 48 45 53 54 54 52 46 44 52 54 61 63 62 63 60 68 64 62 65 65 66 73 79 73 71 76 83 87 87
4 9 4 5 6 15 13 12 15 17 17 36 41 51 58 63 37 53 37 34 45 52 52 61 56 59 59 61 54 61 63 59 61 64 64 66 73 74 68 71 76 82 88 88
9 10 7 6 9 14 10 7 15 17 10 22 49 49 48 19 5 17 38 38 50 52 57 58 52 55 63 56 59 61 59 59 61 63 64 68 71 65 66 71 76 83 87 89
7 2 11 7 8 19 20 18 26 9 12 25 39 28 35 20 37 46 47 54 53 55 56 56 54 60 63 51 58 59 58 56 61 62 65 66 63 61 65 73 78 85 90 92
18 19 10 7 4 22 36 21 16 16 22 31 30 32 36 44 50 55 59 59 58 62 61 61 57 59 55 56 56 54 54 58 60 63 65 61 60 61 67 77 83 88 90 90
8 15 12 26 19 4 75 22 52 20 19 30 40 48 51 54 62 65 63 63 65 62 57 52 50 52 51 53 52 51 54 57 60 63 62 59 61 65 70 78 86 93 88 79
10 16 8 3 21 55 45 58 61 50 55 61 66 69 68 72 69 66 67 67 64 59 57 52 54 54 52 51 48 51 55 58 58 56 56 58 65 71 76 82 83 86 78 74
9 35 12 15 28 32 49 61 72 66 61 57 56 60 61 64 69 70 70 62 61 62 61 57 58 55 53 47 47 53 54 54 55 54 56 60 66 74 81 83 78 73 67 63
26 14 13 20 42 42 37 47 48 47 52 61 66 72 72 70 69 62 64 65 65 65 63 62 60 54 46 45 48 49 48 49 52 56 61 66 72 77 79 81 77 53 63 59
Wind_Direction_850mb
32 60 31 319 335 79 97 89 93 49 306 60 73 100 95 94 87 81 76 70 63 54 48 41 37 31 27 24 22 22 20 20 19 19 17 20 22 23 23 20 16 11 6 3
53 53 331 303 25 74 70 90 71 106 38 86 122 93 106 90 74 80 76 64 59 53 43 36 28 24 20 18 20 20 20 18 20 18 17 15 16 16 17 17 17 13 11 8
82 297 349 66 40 57 33 85 127 123 103 66 131 151 190 176 128 92 79 69 59 44 32 26 19 13 9 13 17 17 17 16 15 14 11 9 7 8 6 8 8 9 7 6
75 2 33 51 70 355 72 353 132 116 86 143 16 261 250 194 199 183 114 79 58 38 28 17 9 4 1 6 11 14 13 15 17 15 13 10 6 2 359 356 356 358 0 0
58 7 23 47 7 333 90 133 95 90 87 90 345 65 261 140 231 223 210 149 64 33 16 7 2 0 1 357 4 8 11 11 10 8 6 4 2 359 354 349 348 349 350 352
99 46 48 331 313 10 124 94 49 55 77 36 256 121 248 192 204 185 206 204 197 20 9 358 356 353 352 354 355 357 3 5 4 4 2 360 357 354 350 348 346 344 344 344
26 24 353 25 6 46 60 59 358 6 15 208 344 51 245 229 216 197 192 204 216 284 341 346 344 348 350 348 340 345 350 356 358 358 357 356 355 354 351 347 345 342 340 339
101 356 12 348 59 146 48 130 140 195 285 270 333 242 250 247 195 184 198 208 234 284 327 338 342 343 342 342 331 336 341 346 351 352 352 352 351 350 348 346 343 339 336 334
109 82 342 57 37 36 266 52 155 104 70 38 270 283 277 168 208 207 214 229 248 286 332 339 344 346 343 337 329 328 333 338 342 345 346 348 347 344 342 340 339 336 333 330
224 80 32 289 191 35 90 141 64 12 60 313 292 282 242 214 226 227 234 239 249 276 330 334 339 341 339 332 323 323 327 328 333 337 340 342 343 340 337 336 336 334 330 327
136 80 265 9 24 163 19 29 50 107 104 160 269 272 209 209 211 217 234 242 255 258 325 320 326 333 339 335 325 320 323 322 325 330 334 336 339 336 334 333 332 330 328 327
164 138 126 155 171 256 185 188 137 113 258 80 127 272 217 214 218 228 234 236 264 271 309 306 315 325 338 341 331 323 321 320 323 324 329 332 334 332 328 328 328 327 325 324
184 6 28 345 5 358 207 182 115 101 78 205 144 264 241 251 238 225 241 253 289 297 297 296 300 308 320 334 335 323 319 320 322 319 321 325 329 327 325 326 326 324 322 321
138 105 161 192 202 130 178 196 169 129 128 185 230 285 255 236 230 247 252 278 293 298 305 301 293 293 303 316 326 329 319 314 314 313 316 320 323 323 323 322 321 320 320 320
132 179 126 265 260 301 230 184 188 203 181 179 246 223 258 234 227 268 279 287 288 293 305 317 319 310 295 297 310 319 318 311 306 309 314 317 316 318 320 319 318 318 319 318
90 215 96 316 350 306 278 223 220 219 229 255 255 276 270 274 277 280 281 276 282 290 299 303 311 312 310 302 297 306 313 307 302 305 313 313 313 317 319 318 318 319 320 319
120 133 95 268 343 330 295 231 198 187 211 206 199 233 250 270 266 280 288 282 285 291 293 304 304 308 308 307 299 292 305 302 300 306 313 309 311 315 317 317 319 322 322 321
127 100 77 231 1 75 247 178 188 203 232 208 258 256 250 261 274 286 288 285 292 299 299 307 302 304 304 299 299 299 301 298 298 307 309 306 310 314 314 317 321 323 323 322
126 122 79 156 210 302 270 193 169 179 267 205 219 246 255 270 280 281 282 293 307 305 299 304 301 302 300 297 303 300 300 297 301 306 304 306 311 312 312 318 322 325 324 322
78 67 122 90 171 228 241 172 173 150 286 236 198 229 244 227 227 254 300 299 299 297 297 300 295 301 305 295 299 300 300 297 303 304 303 308 310 309 313 318 322 323 324 321
141 186 202 195 245 281 242 162 151 93 241 179 192 228 235 196 258 298 298 299 306 303 302 303 297 304 304 292 300 299 297 299 302 302 305 308 307 309 314 316 320 322 323 320
164 159 193 125 149 275 165 137 181 214 182 203 220 256 256 276 289 295 300 302 303 303 301 301 301 301 298 297 298 295 295 299 302 305 307 307 306 311 315 317 320 321 322 319
216 187 181 192 206 242 183 205 217 234 248 265 269 280 278 278 286 297 302 302 300 301 300 301 302 298 294 294 294 294 298 301 303 305 305 305 307 311 316 318 320 321 322 320
243 196 235 91 212 232 223 235 245 249 263 279 285 286 286 287 291 293 299 301 300 299 301 300 298 295 291 292 291 295 299 302 305 305 305 306 309 314 317 319 322 321 322 323
184 155 203 261 272 270 259 257 266 274 279 283 285 286 285 288 290 295 299 299 298 301 302 299 297 294 291 288 292 297 301 304 306 306 307 309 312 316 318 320 323 323 323 324
193 184 191 244 253 237 251 270 279 276 282 290 291 292 295 295 297 299 297 300 300 300 300 296 295 291 286 287 294 296 301 304 305 306 309 313 316 319 320 321 321 326 321 326